User: anonymous   Login
Location: Unspecified
(0.0000°N, 0.0000°E)
Time: 21:18:44
(UTC+00:00)
Language:

TMSAT-1 - Orbit

View from above orbital plane
View from above orbital plane
View from above satellite
View from above satellite

Ground track
Ground track

The orbit data is extracted from the following two-line orbital elements,

1 25396U 98043C   17322.90388997 +.00000022 +00000-0 +28017-4 0  9993
2 25396 098.6014 263.5205 0001735 219.3762 140.7292 14.24461200005941
Epoch (UTC): 18 November 2017 21:41:36
Eccentricity: 0.0001735
inclination: 98.6014°
perigee height: 809 km
apogee height: 811 km
right ascension of ascending node: 263.5205°
argument of perigee: 219.3762°
revolutions per day: 14.24461200
mean anomaly at epoch: 140.7292°
orbit number at epoch: 594

The dashed part of the orbit path shows where the satellite is in the earth's shadow,  

DLR